Regional Weather Roundup
Issued by NWS

Home | Current Version | Previous Version | Graphics & Text | Print | Product List | Glossary On
Versions: 1 2 3 4 5 6 7 8 9 10 11 12 13 14 15 16 17 18 19 20 21 22 23 24 25 26 27 28 29 30 31 32 33 34 35 36 37 38 39 40 41 42 43 44 45 46 47 48 49 50
000
ASUS44 KMEG 231500
RWRTN
TENNESSEE HOURLY STATE WEATHER ROUNDUP
NATIONAL WEATHER SERVICE MEMPHIS TN
1000 AM CDT TUE AUG 23 2016

TNZ002-004-019-021-049-052-054-088>092-231600-
WEST TENNESSEE

CITY           SKY/WX    TMP DP  RH WIND       PRES   REMARKS
MEMPHIS INTL   CLOUDY    81  73  76 S6        30.23R
NWS MEMPHIS      N/A     79 N/A N/A MISG        N/A
JACKSON        CLOUDY    79  72  79 S6        30.24S
DYERSBURG      CLOUDY    82  70  65 MISG      30.23R
UNION CITY     CLOUDY    73  66  78 SE6       30.22S
PARIS          CLOUDY    70  64  83 SE5       30.26S
$$

TNZ008-025-027-028-033-062-065-066-231600-
NORTH MIDDLE TENNESSEE

CITY           SKY/WX    TMP DP  RH WIND       PRES   REMARKS
NASHVILLE      CLOUDY    77  64  64 CALM      30.28S
CLARKSVILLE    PTSUNNY   74  64  71 S3        30.27R
COOKEVILLE     SUNNY     79  66  65 SW5       30.29S
CROSSVILLE     SUNNY     75  61  61 E5        30.34R
$$

TNZ061-075-076-078-094-096-097-231600-
SOUTH MIDDLE TENNESSEE

CITY           SKY/WX    TMP DP  RH WIND       PRES   REMARKS
TULLAHOMA      SUNNY     77  63  61 S3        30.30S
WINCHESTER     MOSUNNY   79  66  65 E3        30.29S
MCMINNVILLE    MOSUNNY   81  66  61 CALM      30.30S
COLUMBIA       CLOUDY    75  75 100 CALM      30.26S
$$

TNZ017-018-042-046-047-231600-
NORTHEAST TENNESSEE

CITY           SKY/WX    TMP DP  RH WIND       PRES   REMARKS
TRI CITIES     MOSUNNY   75  63  66 CALM      30.33S
$$

TNZ012-013-036-069-073-074-231600-
CENTRAL EAST TENNESSEE

CITY           SKY/WX    TMP DP  RH WIND       PRES   REMARKS
KNOXVILLE      MOSUNNY   75  64  68 CALM      30.29S
OAK RIDGE      SUNNY     76  61  59 VRB3      30.32R
GATLINBURG     SUNNY     75  63  64 CALM      30.29S
$$

TNZ083-085-099-231600-
SOUTHEAST TENNESSEE

CITY           SKY/WX    TMP DP  RH WIND       PRES   REMARKS
CHATTANOOGA    PTSUNNY   78  63  59 CALM      30.30R
$$

SKY/WX REPORTED AS FAIR MEANS FEW OR NO CLOUDS BELOW
12 THOUSAND FEET.





USA.gov is the U.S. government's official web portal to all federal, state and local government web resources and services.